K0UND-1 Weather Reports


time (UTC)temp
F
wind
direction
speed
knots
gust
knots
rain 1hr
in
rain 24hr
in
rain mn
in
humidity
%
barometer
mb
20260906200005 82 170 6.1 0.0 0.00 0.01 0.00 74 1013.5
20260906190011 79 130 5.2 0.0 0.00 0.01 0.00 79 1013.9
20260906180012 77 150 7.8 0.0 0.00 0.01 0.00 83 1014.6
20260906170012 75 140 7.0 0.0 0.00 0.01 0.00 83 1015.2
20260906160010 73 150 7.8 0.0 0.00 0.05 0.00 89 1015.6
20260906150008 73 140 7.0 0.0 0.00 0.21 0.00 89 1015.6
20260906140013 70 140 5.2 0.0 0.00 0.21 0.00 88 1015.9
20260906130012 70 140 7.0 0.0 0.00 0.21 0.00 88 1015.9
20260906120004 70 140 7.8 0.0 0.00 0.21 0.00 88 1015.2
20260906110009 70 130 6.1 0.0 0.00 0.21 0.00 88 1015.2
20260906100004 66 90 2.6 0.0 0.00 0.21 0.00 94 1015.6
20260906090011 66 70 5.2 0.0 0.00 0.21 0.00 10 1015.2
20260906080005 68 20 4.3 0.0 0.00 0.21 0.00 94 1015.6
20260906070013 70 90 4.3 0.0 0.00 0.21 0.00 88 1015.6
20260906060009 70 120 6.1 0.0 0.00 0.21 0.00 88 1015.2
20260906050004 70 100 6.1 0.0 0.00 0.21 0.00 88 1015.2
20260906040010 72 120 7.0 0.0 0.00 0.21 0.21 88 1015.2
20260906030004 73 70 5.2 0.0 0.01 0.21 0.21 89 1015.2
20260906020007 75 50 6.1 0.0 0.00 0.20 0.20 83 1015.2
20260906010005 79 70 4.3 0.0 0.00 0.20 0.20 74 1014.2
20260906000011 82 150 7.0 0.0 0.00 0.20 0.20 62 1012.5
20260905230011 82 150 9.6 0.0 0.00 0.20 0.20 58 1012.9
20260905220006 84 170 9.6 14.8 0.00 0.20 0.20 58 1012.9
20260905210013 82 160 13.9 0.0 0.00 0.20 0.20 58 1013.2